Theta_e
317 317 317 317 317 316 316 316 316 317 317 318 318 318 319 319 320 319 320 320 319 320 319 320 320 321 322 322 321 320 318 316 312 310 309 314 321 324 331 332 337 339 351 343 339 331 326 328 333 342 341 340 337 334 339 340 341 338 327 323 320 322 321 325 325 327 330 332 334 336 339 337 332 337 341 345 340 340 339 338 339 341 341 343 344 346 347 347
317 316 316 317 317 316 316 316 317 317 316 317 317 318 319 319 319 319 319 319 319 319 320 320 320 321 322 323 322 320 318 314 312 311 313 326 326 329 335 334 340 339 346 334 326 323 321 325 331 340 337 334 336 334 340 334 340 331 326 324 320 323 325 329 330 331 332 332 336 338 340 338 335 338 341 335 334 336 334 335 337 336 339 343 344 345 345 346
316 316 316 316 316 316 316 316 316 316 316 317 317 317 318 318 319 319 319 319 319 319 319 320 320 321 322 324 323 321 317 314 314 315 323 338 332 331 335 336 343 345 335 330 325 322 319 327 334 338 336 331 334 331 335 333 336 334 327 321 324 328 329 331 331 333 334 339 337 336 338 338 339 338 341 335 333 335 332 330 333 333 333 337 341 342 343 344
316 316 316 316 315 315 315 316 316 315 316 316 316 317 317 318 318 318 318 319 319 319 319 319 320 321 322 323 323 320 317 314 314 320 333 342 336 334 335 344 340 345 331 326 322 319 327 331 334 336 331 329 328 331 329 331 329 332 328 323 326 329 327 330 332 335 338 341 338 338 339 335 338 338 338 336 331 332 334 335 334 333 334 337 339 340 343 342
315 316 316 315 315 315 315 315 315 315 315 316 316 317 317 317 318 318 318 318 318 319 319 319 320 321 323 323 320 320 314 309 310 321 340 343 338 337 344 345 347 332 327 321 321 325 330 329 330 330 332 326 326 328 326 328 332 327 327 331 331 332 326 330 329 335 337 340 341 340 335 335 341 340 337 335 330 330 335 336 338 338 338 338 337 339 342 341
315 315 314 314 315 315 315 315 315 315 316 316 316 317 317 317 317 317 318 318 318 318 319 319 320 321 324 321 319 316 311 301 314 320 347 342 341 345 348 344 335 324 322 319 319 324 326 326 326 325 326 326 323 324 326 329 330 321 326 326 328 328 325 329 329 336 338 338 337 337 339 341 338 335 338 336 335 337 341 339 340 340 341 340 341 340 341 340
315 315 314 314 315 314 314 315 315 315 315 316 316 316 316 317 317 317 317 317 318 318 319 319 320 322 323 318 316 312 309 309 317 333 343 342 344 346 349 342 333 321 320 317 320 321 324 323 321 322 325 325 324 325 325 324 328 325 322 326 326 328 326 329 327 336 336 337 338 340 342 338 336 331 338 335 337 339 341 340 341 342 342 342 340 340 340 340
315 315 314 314 315 315 314 315 315 315 316 315 316 316 316 317 317 317 317 317 318 319 319 319 320 322 322 316 311 308 308 310 318 332 345 344 339 342 346 322 318 319 318 317 318 319 323 320 316 325 323 321 323 324 325 323 325 322 322 326 326 327 326 327 327 330 336 337 341 340 337 337 337 337 337 335 337 340 340 341 341 341 341 341 341 340 341 340
315 315 315 315 315 315 315 315 315 315 316 315 316 316 317 316 316 317 317 318 318 319 319 320 321 322 322 315 309 306 306 316 320 339 337 334 337 333 330 319 315 318 316 317 319 322 322 320 323 324 319 323 322 324 325 320 320 323 323 324 323 321 321 321 322 326 335 337 339 337 335 338 339 339 334 337 338 340 340 340 340 339 338 339 340 341 341 340
315 315 315 315 315 315 315 315 315 316 315 315 316 316 316 316 316 316 317 318 318 319 319 320 322 324 320 313 307 303 311 339 346 340 334 336 331 328 326 322 315 314 314 313 315 322 320 322 323 325 323 326 320 319 319 320 318 320 318 318 316 317 317 317 315 325 335 336 338 334 333 335 338 335 329 339 340 340 339 338 339 338 337 338 339 341 341 341
316 316 315 315 315 315 315 315 315 315 315 315 315 315 315 316 316 316 317 318 318 319 319 320 322 321 313 312 304 305 314 335 343 337 333 336 330 324 322 319 316 313 314 310 315 322 320 324 321 322 321 320 320 317 316 316 317 316 317 316 316 317 316 315 315 326 335 333 338 336 333 336 336 334 332 337 340 340 337 337 337 337 337 338 339 341 342 342
315 315 315 315 314 315 315 315 315 315 315 315 315 315 315 316 315 316 316 317 318 319 320 321 322 321 316 311 306 307 313 332 340 333 333 331 328 326 323 319 317 314 312 309 311 316 320 324 320 321 313 317 315 316 316 316 315 316 317 312 314 315 315 320 318 329 333 332 337 336 331 329 331 329 335 339 340 339 337 336 336 336 337 338 339 340 341 342
315 315 315 314 314 314 315 315 315 315 315 314 314 314 315 315 315 315 317 317 318 319 320 321 324 321 314 305 310 315 324 337 336 331 329 328 326 326 325 318 316 315 314 311 310 312 315 320 319 319 315 314 314 313 315 317 317 317 315 311 313 313 313 319 332 332 330 334 337 334 317 322 329 333 336 340 338 338 336 335 335 336 336 337 338 339 340 342
315 315 314 314 314 314 314 315 315 314 314 314 314 313 313 314 315 317 318 317 318 320 321 323 324 319 311 308 314 318 319 336 332 328 326 328 324 324 326 321 319 318 317 314 313 312 311 314 318 316 316 313 313 317 315 317 314 313 312 311 309 309 309 318 330 331 327 335 335 333 318 320 327 333 337 339 338 336 334 335 335 335 336 337 337 338 339 341
315 314 314 314 314 314 314 314 314 313 314 314 313 312 313 313 316 319 320 319 319 322 324 325 321 315 310 311 319 322 333 335 327 327 330 324 324 322 322 322 319 318 318 315 314 313 312 313 314 314 315 316 316 313 313 314 312 310 310 309 307 306 309 312 331 330 325 331 335 330 319 321 325 332 337 339 337 337 334 335 335 335 335 336 337 337 338 340
315 314 314 314 314 314 314 314 314 313 314 313 311 312 314 317 322 322 321 320 322 325 325 316 316 315 310 306 320 338 323 316 317 328 331 328 324 319 325 322 320 319 318 317 316 314 312 312 313 316 316 316 314 312 312 312 310 309 309 306 305 305 306 306 323 331 331 331 333 328 320 322 324 331 337 339 337 336 335 334 335 335 335 336 336 337 338 339
314 315 314 315 314 314 314 313 313 313 313 312 311 312 316 324 325 323 322 323 324 325 321 316 317 317 304 314 320 315 308 313 313 325 330 330 323 325 322 320 317 316 317 316 316 312 310 308 310 314 313 312 313 312 309 307 306 307 307 307 304 304 305 305 312 329 330 330 326 330 324 322 325 331 336 337 337 335 334 334 335 335 336 337 337 337 337 338
314 314 314 314 315 314 314 313 313 313 312 311 310 311 314 322 323 322 322 323 324 322 320 319 318 306 304 311 307 308 313 314 313 316 325 329 326 326 322 318 318 316 316 311 312 308 308 305 311 311 311 311 310 310 307 304 306 305 306 306 305 305 305 304 307 317 327 329 325 327 326 326 327 331 334 335 337 335 334 334 335 335 336 336 336 336 337 337
314 314 314 314 313 314 313 313 313 312 311 310 311 313 317 319 313 319 316 318 309 305 299 306 304 300 297 306 311 311 313 315 311 308 310 323 323 319 318 321 319 316 310 306 306 308 306 309 310 308 306 308 308 310 309 306 308 306 306 306 305 305 305 306 309 311 316 323 323 324 323 325 327 329 333 335 336 335 334 335 335 335 336 336 336 336 336 337
314 314 314 314 314 313 313 313 312 310 310 308 309 313 310 306 303 304 310 312 305 304 305 306 310 310 309 308 307 311 313 306 306 304 311 313 318 314 314 318 313 314 307 302 304 307 308 304 302 304 308 310 311 312 313 310 309 308 308 307 306 305 307 308 309 311 312 317 319 321 323 324 325 329 332 335 335 335 334 332 333 334 334 335 336 336 336 337
314 314 314 314 313 313 313 312 311 310 309 308 306 307 303 301 298 297 302 304 305 306 305 306 310 307 305 307 309 307 304 305 305 305 307 320 314 311 306 310 310 306 305 307 304 311 310 305 304 309 311 312 313 312 310 308 308 308 308 307 306 306 305 309 309 311 311 314 312 321 321 322 325 328 331 335 334 332 333 332 332 333 334 335 335 336 336 337
315 314 314 313 313 312 312 311 310 309 307 304 307 307 306 308 308 308 304 300 304 304 304 305 304 305 307 308 310 308 305 302 303 305 308 311 308 305 302 308 307 304 307 308 310 305 303 302 308 311 314 314 313 310 309 310 308 308 308 307 306 307 307 309 307 308 309 310 308 307 307 310 314 321 330 333 333 334 335 335 334 334 333 334 334 336 336 336
314 314 314 313 313 312 311 310 309 307 309 309 310 308 308 312 312 312 307 302 300 303 303 302 302 303 304 306 307 309 303 302 300 303 306 309 303 304 305 305 305 306 308 308 303 303 300 304 310 315 314 313 311 311 310 309 309 309 307 306 304 306 304 303 306 307 310 308 307 309 306 308 310 311 322 332 333 335 337 337 336 336 334 333 334 336 336 335
314 314 314 313 312 311 310 309 308 308 309 307 307 309 312 313 312 308 304 300 298 304 302 304 304 304 303 303 307 307 302 301 301 301 316 307 303 303 305 306 304 306 306 307 307 305 305 310 314 313 314 313 310 309 309 310 308 308 308 307 306 305 306 306 306 309 310 308 306 306 305 306 314 312 312 322 333 334 335 336 336 337 337 337 337 337 338 336
314 314 314 313 311 310 308 307 308 308 308 308 309 312 313 313 314 310 304 300 299 300 305 303 305 305 306 307 306 304 301 300 302 304 314 308 303 304 304 306 307 303 306 308 309 307 308 311 313 312 311 311 310 307 308 309 307 308 308 309 308 307 307 306 307 307 305 304 306 305 301 303 315 318 315 322 327 330 334 334 334 336 336 336 334 335 337 338
314 314 314 312 312 310 307 307 308 308 308 310 311 313 313 313 312 312 305 296 291 297 302 298 303 301 305 301 303 301 302 299 303 304 312 308 314 306 304 304 306 302 304 307 307 308 308 309 312 310 310 308 309 308 308 309 307 305 307 310 310 309 308 308 306 305 301 299 303 304 300 299 307 306 315 324 325 328 332 333 334 335 336 336 335 335 336 336
314 314 313 312 311 307 309 307 308 308 307 309 313 313 312 313 315 308 301 294 290 296 295 299 299 301 303 301 302 301 293 296 305 306 307 309 307 306 303 302 302 304 307 309 305 302 308 307 308 309 308 307 306 306 307 308 306 304 309 308 309 309 307 307 307 306 304 305 305 302 304 300 300 307 320 325 324 326 329 331 333 334 336 336 336 336 336 337
314 313 311 310 308 307 308 308 308 307 308 311 313 313 313 314 311 310 299 286 285 301 295 298 300 304 302 301 302 299 298 301 299 302 305 306 311 304 303 301 302 303 302 305 296 304 307 303 307 306 306 306 305 308 308 309 306 306 307 310 308 308 308 307 306 305 303 301 301 302 304 300 301 311 325 326 322 323 326 329 332 334 335 337 337 337 337 338
313 312 311 310 308 306 309 309 308 308 311 313 313 312 313 312 308 302 294 285 295 296 305 296 305 302 301 301 300 298 299 300 299 301 305 306 306 303 302 301 300 300 299 305 301 301 299 301 304 307 306 304 307 308 309 309 305 309 308 307 308 307 306 306 305 303 301 300 298 301 302 299 301 310 314 318 315 313 316 320 328 333 334 336 336 338 338 339
312 311 310 309 307 308 308 307 306 312 314 315 313 313 311 309 304 295 290 282 298 290 298 299 299 296 299 297 297 298 298 298 300 302 303 301 303 305 302 302 300 300 300 300 300 299 299 304 306 301 298 300 301 301 307 309 309 308 308 306 305 304 304 304 303 303 300 296 299 302 301 300 296 307 311 311 312 315 318 321 323 330 334 335 337 337 338 338
310 309 309 308 309 311 309 309 310 312 314 314 314 310 309 306 297 291 283 289 297 295 298 297 295 299 297 295 294 297 298 298 300 301 300 302 302 302 302 300 304 300 298 298 298 299 300 301 301 300 304 301 301 300 300 305 306 307 304 302 301 300 303 302 301 303 296 294 301 302 300 301 296 304 312 317 319 320 319 318 320 322 325 332 335 337 338 339
309 307 308 308 310 311 309 311 309 313 315 316 312 308 304 292 295 287 286 300 288 293 293 294 296 295 295 297 295 295 296 298 298 298 296 297 296 296 295 295 294 294 292 295 295 299 297 297 298 300 306 300 299 300 300 301 303 305 303 302 296 295 296 293 296 293 294 294 299 298 299 299 303 308 314 316 317 319 321 321 321 322 324 327 333 336 337 339
307 307 305 308 311 310 311 313 313 316 317 313 310 307 298 292 284 292 291 293 288 295 294 297 294 294 294 296 294 296 298 294 297 297 297 297 296 295 296 296 295 295 292 295 294 294 295 298 298 299 300 302 301 298 298 298 300 301 299 300 297 292 292 289 293 296 296 298 300 299 299 299 307 309 316 315 318 320 321 323 324 324 324 326 331 336 336 338
307 307 311 311 311 313 315 317 316 315 314 312 307 299 296 288 285 298 292 293 293 296 296 293 294 295 295 293 293 294 294 296 296 295 297 295 295 294 296 297 297 295 297 294 293 293 290 291 295 296 295 300 299 298 297 298 299 300 301 301 299 298 293 290 292 290 292 296 298 297 296 297 301 303 316 317 319 321 323 324 326 326 326 326 329 336 338 337
306 307 312 312 311 314 314 315 315 315 310 305 300 296 288 286 291 289 291 293 295 295 294 294 293 294 292 294 294 295 296 293 296 295 294 294 292 292 292 293 297 296 295 293 292 294 291 292 296 299 298 299 297 299 300 297 298 300 299 302 299 299 302 295 297 297 296 295 294 296 297 302 305 311 318 320 319 320 321 322 324 324 325 325 325 326 329 332
310 316 313 317 316 317 316 315 315 313 307 303 298 291 288 289 288 292 292 297 295 293 293 295 295 293 291 293 294 294 297 295 294 295 293 293 293 292 294 294 294 295 294 293 293 291 294 290 296 297 299 298 298 300 299 300 295 298 299 297 298 300 300 299 298 297 297 298 295 301 301 303 309 309 315 317 317 317 319 320 321 322 324 325 323 323 325 328
316 317 316 318 313 315 318 316 316 311 308 302 295 289 293 294 295 294 298 294 294 294 293 291 289 290 290 289 292 293 295 297 293 294 291 293 292 294 293 295 296 297 296 296 293 295 292 291 296 295 295 299 300 299 299 299 299 299 297 298 301 302 301 299 294 296 295 292 295 300 298 300 301 298 313 314 313 314 316 317 319 322 323 323 323 323 323 324
314 315 318 315 311 316 318 317 311 309 306 301 293 295 296 293 298 296 297 295 295 295 293 291 290 293 289 291 290 291 294 293 292 294 290 293 289 295 294 294 298 297 297 297 296 294 296 290 294 295 295 297 301 299 298 301 301 298 297 300 297 294 294 298 298 290 290 291 294 296 298 300 302 302 310 310 311 312 314 316 317 317 319 321 322 323 324 325
311 309 307 309 314 316 317 317 310 309 303 296 295 292 296 296 299 296 297 296 294 293 292 291 291 292 292 290 291 293 293 291 291 291 291 291 290 295 295 295 296 299 298 298 297 296 296 291 291 296 296 296 298 298 292 294 300 299 300 299 298 299 300 298 298 298 299 293 293 293 297 294 304 306 310 310 312 313 314 315 316 316 317 318 321 322 323 324
312 310 304 312 315 315 319 313 308 306 301 293 295 294 298 295 297 299 300 298 295 294 292 293 293 292 292 291 292 291 293 292 292 291 292 292 291 295 295 298 295 298 297 299 296 296 294 296 289 293 297 296 292 294 291 293 293 296 297 295 297 297 298 300 298 296 295 295 296 294 291 295 303 312 312 312 313 314 314 314 316 316 317 318 320 320 322 324
307 306 306 314 315 313 310 309 304 299 297 298 297 296 299 295 297 299 300 300 298 299 296 294 294 292 292 293 292 294 292 293 293 292 292 292 293 291 297 296 296 296 298 297 297 297 294 293 290 292 293 291 291 295 294 294 295 294 294 292 293 294 295 294 292 296 295 296 293 295 290 296 303 315 313 313 315 314 314 314 315 316 316 318 318 320 322 322
308 300 303 313 314 311 309 300 300 301 297 295 294 296 296 303 297 297 299 300 299 297 299 297 296 295 294 293 294 294 294 293 293 293 293 292 294 295 297 298 297 296 295 294 294 298 295 296 294 289 291 292 293 296 298 297 296 295 296 293 295 294 295 296 291 292 295 294 297 299 293 293 306 315 315 313 314 314 314 315 314 315 316 317 319 320 321 323
307 302 312 315 313 309 304 298 301 299 296 297 299 299 299 297 296 298 298 298 296 297 297 296 294 295 295 295 295 294 295 292 293 291 293 294 295 297 298 299 299 297 297 295 295 298 305 294 291 290 293 294 295 297 297 298 296 295 295 296 295 293 293 293 294 297 295 294 296 296 293 294 306 316 316 315 315 315 315 314 314 314 316 317 318 318 319 321
308 306 309 316 314 309 303 295 294 296 297 298 298 296 299 298 297 297 296 298 296 296 295 295 297 298 295 298 297 293 295 291 294 294 293 295 295 298 298 299 303 300 300 295 294 295 292 292 293 288 288 290 293 295 294 296 296 293 292 294 295 296 295 294 297 299 294 291 292 296 290 293 307 316 316 314 314 313 313 313 314 313 314 315 317 318 318 320
308 307 309 312 312 308 299 299 298 296 296 296 296 295 296 297 298 297 297 296 299 297 296 295 295 297 297 298 296 297 297 295 292 295 294 295 295 300 299 298 303 302 304 306 302 299 295 291 292 287 285 283 283 284 287 290 291 293 294 294 294 294 294 295 293 295 290 293 294 293 291 299 308 313 312 313 312 313 313 313 314 314 314 314 316 317 317 318
302 299 302 305 307 305 303 304 301 298 297 297 296 295 296 295 297 299 299 297 298 299 298 298 298 299 297 297 295 294 295 297 295 294 295 294 296 298 298 298 300 303 304 307 303 301 294 293 292 291 290 289 290 290 290 294 292 289 290 292 292 294 295 295 296 295 291 293 293 294 297 299 304 307 309 311 311 310 311 312 312 312 314 315 316 316 317 317
305 300 299 298 304 303 299 302 300 300 297 299 295 295 294 295 296 297 300 296 298 297 298 298 296 295 295 296 294 294 295 295 297 296 294 294 296 297 299 298 300 303 307 301 303 298 296 291 291 293 291 291 292 291 292 293 290 290 290 290 292 293 294 297 294 291 296 295 290 295 301 301 302 306 308 309 310 311 311 312 312 313 313 314 314 316 318 316
300 300 303 304 295 294 297 297 300 300 300 299 296 297 294 294 295 294 298 298 298 299 296 298 298 296 296 295 295 292 293 294 295 292 295 295 295 297 296 299 298 301 302 298 300 297 294 290 291 292 290 291 291 292 292 292 291 291 291 290 291 293 295 294 295 296 295 294 292 298 302 301 303 306 308 309 310 310 311 312 313 314 314 315 315 314 314 314
306 304 304 305 298 298 299 299 300 299 299 301 298 297 294 295 293 295 295 296 297 297 298 293 294 296 297 297 296 294 295 291 291 294 294 294 294 295 293 296 298 301 299 298 298 299 296 291 291 292 290 291 291 292 292 291 290 291 292 293 293 294 295 297 301 303 300 299 301 302 302 301 304 307 309 310 312 312 312 314 314 313 313 314 313 313 313 313
304 303 301 304 305 303 303 299 299 300 297 299 296 296 295 295 294 296 297 296 294 295 299 295 295 297 297 297 299 294 294 296 296 293 295 295 294 296 295 295 295 299 299 296 297 298 295 291 293 292 290 289 291 292 292 291 290 290 292 294 295 296 297 298 300 303 304 302 302 302 301 301 306 309 310 312 314 314 313 312 312 313 313 313 312 312 313 312
306 307 308 304 299 300 303 298 299 299 297 299 296 297 297 295 295 297 296 298 296 295 297 295 297 297 298 298 297 296 298 299 299 297 299 297 293 298 295 295 298 295 297 297 297 297 297 293 293 291 288 287 290 290 291 291 290 290 291 293 294 294 295 297 296 302 302 300 301 301 300 299 305 310 312 312 313 312 310 311 312 312 313 313 313 312 313 313
308 307 307 306 299 301 298 298 297 298 295 297 299 298 297 296 298 298 295 298 299 300 300 299 298 298 296 297 296 298 300 300 300 301 301 301 300 300 299 299 299 297 296 296 297 295 295 293 290 289 286 286 290 290 290 289 289 287 288 291 295 297 301 302 303 305 304 304 299 298 300 305 307 310 308 309 311 311 311 310 311 312 313 313 313 312 313 314
Wind_Speed
17 16 16 16 17 16 16 16 16 17 17 17 17 17 17 16 15 16 17 16 16 15 15 14 13 11 9 8 6 4 2 3 3 2 3 11 5 7 9 4 13 11 14 14 15 14 9 8 10 9 8 6 4 4 2 5 4 1 1 2 2 1 2 4 5 3 2 6 8 10 10 8 9 7 5 7 7 7 7 6 8 9 9 10 16 18 18 18
17 17 17 17 16 16 16 16 17 17 17 17 18 18 18 17 17 16 17 17 16 15 14 13 12 10 9 7 5 2 2 3 6 5 16 5 7 11 11 7 13 14 16 14 17 13 14 9 11 12 9 7 1 4 4 3 4 3 1 2 2 1 3 3 5 4 1 3 10 10 10 8 8 10 7 7 8 9 8 7 10 12 12 15 18 20 19 18
17 17 17 17 17 17 16 17 17 17 17 18 18 18 18 18 18 17 17 17 16 15 15 13 12 10 9 6 2 2 2 3 4 5 6 14 7 12 10 8 14 17 16 13 10 13 13 15 13 11 7 6 3 5 5 3 4 4 3 2 2 1 7 5 4 4 1 7 10 11 10 8 8 8 7 6 10 8 8 9 11 13 15 18 20 19 19 18
17 17 17 17 16 16 17 17 17 17 17 18 18 18 19 19 18 18 18 17 16 15 14 13 11 10 9 8 1 1 2 3 2 2 3 9 11 10 8 10 17 16 7 6 7 7 9 12 11 8 7 4 4 3 6 4 4 2 5 4 1 1 8 2 7 5 2 8 10 10 9 8 10 7 8 9 9 8 7 10 10 15 19 20 21 21 19 18
17 17 17 16 16 17 17 17 17 17 18 18 18 18 19 19 19 19 18 17 16 15 14 13 11 9 9 2 2 2 3 3 3 2 3 13 10 9 7 15 16 12 10 9 10 11 13 14 11 5 5 5 4 5 5 4 4 2 6 5 6 7 8 8 7 3 2 5 9 9 11 8 9 6 9 13 9 6 9 11 10 16 19 23 22 20 18 18
17 17 17 17 17 17 17 18 17 17 19 18 18 19 20 20 19 19 19 18 15 14 14 12 10 8 7 4 1 2 2 0 2 3 10 12 10 9 12 12 10 10 13 13 9 11 13 10 11 8 5 5 7 7 2 6 5 5 6 8 9 8 9 7 5 3 6 7 9 11 7 8 11 8 9 13 4 4 6 10 13 15 17 19 20 21 20 19
18 17 17 17 17 17 17 17 18 19 18 19 19 20 20 20 20 20 19 18 16 13 12 11 9 8 2 4 2 3 1 5 2 6 14 12 11 10 9 12 11 11 12 11 11 12 11 12 10 9 8 5 5 6 4 2 6 7 6 5 10 9 11 11 10 4 6 9 10 7 9 9 11 8 9 11 2 4 9 11 14 15 16 17 18 19 20 19
18 17 18 17 18 18 18 18 18 19 19 19 21 20 21 21 21 20 19 17 15 14 11 10 8 8 4 1 2 1 1 2 3 5 14 14 12 10 11 8 8 10 12 12 13 12 13 12 11 8 7 8 2 8 2 5 5 6 7 6 8 7 8 10 6 5 7 5 7 9 10 9 10 4 9 10 5 7 11 13 15 16 17 15 16 18 17 17
18 18 17 18 18 18 18 18 19 19 19 20 20 21 21 21 21 21 20 17 15 12 11 8 6 5 1 2 3 1 2 1 1 10 15 13 10 9 12 8 4 12 8 8 8 12 13 8 8 9 5 7 3 8 6 3 5 8 10 9 9 11 12 11 8 6 8 5 8 9 7 7 7 5 7 8 7 9 13 14 16 17 17 17 16 17 17 17
18 19 19 19 19 19 19 19 19 19 21 21 21 22 22 22 21 21 20 18 15 12 9 7 7 5 3 2 2 2 3 2 3 11 13 13 11 11 4 8 8 9 11 7 7 12 11 9 8 4 2 4 3 3 2 5 2 2 8 9 10 13 12 6 5 5 8 7 12 9 8 8 7 6 4 8 9 12 14 15 16 18 18 16 15 14 15 17
19 18 18 19 19 20 20 20 20 20 21 22 22 23 22 23 22 21 20 18 14 10 7 6 5 5 3 2 2 3 1 3 3 8 12 14 13 11 9 9 8 9 9 6 9 11 4 9 3 4 1 2 5 3 4 0 6 9 8 8 9 8 7 7 4 5 8 6 10 7 6 7 7 5 4 9 11 14 15 16 17 16 16 15 16 15 13 13
20 19 20 19 20 20 20 20 21 21 21 23 23 23 23 23 22 20 18 16 12 8 6 6 8 4 2 1 4 1 3 3 6 7 8 12 8 4 6 10 10 8 10 10 7 6 5 10 5 5 1 3 5 1 3 2 6 7 5 7 7 7 6 5 1 7 10 4 10 9 8 7 9 6 5 10 13 15 15 16 17 16 15 15 15 13 13 13
20 20 19 20 20 21 20 20 21 22 23 23 23 23 24 23 21 18 14 10 8 7 8 7 7 3 1 2 5 3 2 4 8 10 7 3 7 6 5 4 3 3 2 9 9 6 2 5 4 7 2 2 3 2 3 7 6 7 3 3 6 5 2 6 2 5 7 5 12 9 3 5 11 7 5 13 14 15 15 15 15 13 14 14 14 13 13 13
20 20 20 21 20 21 21 21 22 23 23 22 20 24 23 22 17 13 8 8 3 5 8 9 6 3 1 4 1 1 3 4 9 10 9 7 8 5 7 5 4 3 3 2 1 3 4 1 3 1 1 2 1 2 5 1 2 3 1 1 2 4 1 5 2 8 6 5 10 9 5 2 6 10 8 13 16 17 15 15 15 14 14 14 13 13 13 14
20 20 21 21 22 22 22 22 22 23 23 22 22 24 21 14 12 8 3 6 6 8 11 8 1 2 1 4 3 1 7 4 7 7 9 11 9 7 6 7 5 4 2 3 1 3 2 1 2 4 3 1 3 4 0 2 1 1 3 4 1 3 1 6 2 9 3 3 9 7 5 5 3 11 12 14 15 16 14 15 15 14 14 14 13 14 13 13
17 19 20 22 23 23 22 19 18 22 22 24 20 21 17 13 3 5 8 9 10 12 8 3 2 2 1 3 5 8 4 3 3 5 8 6 10 4 9 8 6 5 4 2 1 2 2 3 5 3 2 4 3 1 1 3 2 1 4 1 1 1 3 1 4 4 4 6 8 10 1 1 4 5 13 14 16 16 14 14 15 15 16 15 13 13 13 13
16 16 17 20 23 23 23 19 20 20 18 21 22 16 13 3 8 10 12 11 7 4 2 1 2 1 1 2 2 4 1 1 3 3 5 2 3 10 12 10 6 6 5 3 2 4 5 7 2 2 1 3 1 1 4 5 3 3 1 2 2 1 3 1 3 3 0 5 6 10 7 3 4 4 10 13 16 16 13 15 15 14 13 14 12 13 14 13
18 17 18 21 22 23 22 19 20 18 17 20 18 9 7 5 5 9 9 5 3 2 1 0 2 1 5 4 3 3 1 4 1 4 4 3 8 10 7 4 6 8 7 8 2 4 5 6 5 5 3 4 4 4 7 8 7 5 4 4 3 2 1 3 2 3 4 4 5 7 9 9 1 6 9 11 14 14 14 14 15 15 14 14 13 13 15 14
22 20 19 19 22 23 22 20 19 16 16 20 13 7 6 7 3 1 4 2 2 2 3 3 4 3 3 3 2 4 2 2 2 5 5 10 4 4 5 5 11 12 6 6 4 6 4 4 4 5 9 8 7 6 5 4 4 5 3 2 1 1 2 1 3 3 4 4 6 6 8 9 7 6 9 11 13 13 11 11 11 13 14 14 14 13 13 14
24 21 20 19 19 22 23 20 17 15 14 11 5 2 2 2 1 2 2 1 4 4 2 1 1 2 6 3 2 6 4 1 2 1 6 3 12 7 7 6 4 2 9 6 8 5 6 9 10 11 8 7 5 7 6 2 2 3 3 1 1 3 3 2 4 3 2 4 6 7 9 10 9 7 11 12 12 11 11 13 12 13 15 15 15 15 15 15
19 19 18 18 17 18 19 17 16 14 13 2 1 2 1 1 0 0 4 6 4 4 5 4 6 5 5 2 3 4 4 1 1 2 4 6 6 12 5 5 7 7 5 5 8 4 6 7 9 5 7 7 5 5 2 3 1 1 1 2 1 1 3 2 5 3 3 4 0 3 7 9 10 5 9 11 13 14 14 14 15 15 15 14 17 17 17 15
20 20 19 17 18 17 18 16 15 16 6 3 2 2 3 1 2 2 1 3 2 3 3 4 1 5 2 4 2 1 3 2 3 4 2 6 9 9 4 4 7 7 4 5 6 8 8 9 6 7 6 4 4 3 3 3 3 3 4 1 3 2 3 5 3 2 3 2 4 0 5 7 8 7 8 13 15 15 17 17 18 18 16 14 14 16 15 14
22 20 19 19 17 17 16 15 15 13 1 0 2 3 2 2 3 3 3 2 5 1 2 1 3 4 4 1 1 5 1 2 4 4 6 5 5 3 8 6 7 6 5 7 9 8 7 7 6 5 5 6 3 3 4 3 2 3 3 5 6 3 2 3 4 2 4 3 5 2 6 6 6 3 7 12 15 14 16 17 16 15 17 17 18 16 15 16
23 22 20 18 18 16 16 15 15 4 2 1 2 3 2 2 3 2 4 3 4 3 3 2 3 1 3 1 3 6 2 1 2 6 1 7 8 1 6 5 6 6 7 7 6 8 3 4 8 7 7 6 5 5 5 4 5 2 4 5 5 3 2 4 2 5 8 1 3 3 4 5 1 2 4 9 13 12 13 14 13 12 13 13 10 12 14 16
22 22 21 19 17 17 16 15 1 3 3 1 3 2 2 4 2 2 3 1 2 2 0 0 1 4 1 2 2 4 1 1 4 1 0 6 7 5 3 1 4 6 7 5 7 7 4 2 5 9 5 5 4 5 5 5 6 4 5 8 6 3 4 3 3 6 3 2 5 6 3 2 2 2 4 2 9 12 12 14 15 14 13 12 14 15 14 15
21 19 22 17 20 19 16 2 2 2 2 2 0 1 4 4 3 3 2 1 2 2 1 3 2 3 1 2 2 1 3 1 2 1 0 1 1 1 3 2 2 7 5 9 5 2 3 3 7 8 8 5 5 5 2 6 5 4 3 8 8 7 6 5 2 2 3 4 3 3 3 1 0 3 2 3 8 12 11 15 15 14 13 14 14 14 15 16
20 18 19 16 17 15 3 2 1 2 2 1 0 3 5 5 0 4 3 1 3 2 1 2 1 3 1 2 3 3 6 5 1 2 2 3 1 3 8 4 2 4 2 3 2 5 4 4 5 5 6 6 4 7 6 7 5 6 3 4 6 9 9 7 4 4 2 4 5 1 2 3 2 4 7 5 5 8 11 13 14 13 14 16 16 15 16 16
20 17 14 13 9 7 1 2 1 1 1 1 2 4 5 3 2 0 2 2 3 2 1 3 1 0 1 2 1 1 2 2 2 2 3 5 3 3 2 8 6 8 5 5 9 3 4 5 6 5 5 5 7 5 5 9 6 1 4 7 7 8 7 5 4 3 0 3 3 1 2 3 1 8 10 9 4 6 5 7 11 13 14 15 16 16 17 17
17 16 13 10 6 4 1 1 1 1 1 3 4 4 3 1 2 2 3 2 3 1 0 3 1 3 2 1 3 2 1 3 2 1 5 3 9 2 4 3 2 7 3 4 5 4 1 1 1 4 6 6 4 2 7 11 8 6 4 2 2 2 2 3 3 3 3 3 5 4 4 2 4 9 10 10 11 12 12 12 10 13 14 15 14 14 14 14
16 15 12 7 2 2 1 0 5 3 3 4 4 4 1 1 2 3 2 3 3 2 1 2 2 1 1 4 4 6 5 4 3 3 8 3 8 5 5 1 3 5 4 3 5 4 2 2 1 4 2 3 3 1 5 13 7 5 8 5 3 2 2 3 1 2 3 5 6 5 5 5 1 7 10 10 9 11 11 8 11 9 13 13 11 11 12 13
18 14 11 3 3 1 3 2 2 1 3 3 4 2 1 2 2 1 3 3 3 2 1 2 1 1 3 5 7 3 5 6 7 5 6 5 7 8 6 5 4 4 3 3 4 4 5 3 2 3 2 3 2 3 3 1 1 3 4 5 5 4 3 3 2 2 5 4 3 1 4 7 4 4 9 9 10 12 11 11 13 13 13 10 12 14 14 13
17 14 9 5 2 1 2 4 1 2 4 4 3 2 1 3 1 4 4 1 1 4 2 1 1 3 8 8 6 6 2 6 8 7 5 4 9 9 8 2 5 7 3 3 6 1 7 6 3 2 3 9 3 4 4 4 5 6 4 5 8 4 5 4 3 6 7 4 3 1 6 7 9 5 8 9 11 12 12 10 11 13 12 13 10 14 14 15
19 16 6 6 5 2 5 2 1 3 5 3 1 0 1 1 5 2 1 5 2 3 2 1 3 3 3 10 6 7 7 7 5 7 3 5 5 6 4 9 3 2 5 2 4 5 4 2 8 7 2 9 6 5 6 6 3 7 8 7 7 7 7 6 4 2 1 5 0 1 1 3 7 7 10 9 10 11 11 11 12 10 13 12 12 12 13 14
18 13 1 5 6 5 2 1 0 4 5 1 1 2 3 6 4 2 3 3 2 1 2 3 1 7 7 6 3 2 8 8 5 5 3 2 6 5 5 10 12 3 2 2 3 1 6 6 5 8 4 8 6 7 4 3 2 3 3 5 4 4 4 8 6 9 8 6 5 3 5 7 8 5 8 9 9 10 10 11 11 13 13 13 15 4 13 14
17 4 2 2 3 6 8 5 3 1 2 1 4 2 6 2 2 3 3 4 1 3 4 3 1 5 5 5 3 4 2 5 5 8 10 7 5 5 6 8 9 5 1 2 1 0 4 4 5 4 3 4 6 5 3 2 2 1 0 1 4 4 3 4 3 6 7 6 5 4 1 3 7 10 12 9 11 12 14 15 17 18 16 15 13 15 14 11
5 2 2 1 2 3 2 2 3 4 1 1 6 8 8 3 4 2 2 3 2 3 5 2 9 7 4 5 3 5 7 3 2 2 5 8 7 6 6 4 8 9 4 2 1 3 3 5 4 6 3 4 8 5 4 3 3 5 4 5 2 3 2 3 2 4 3 3 5 3 5 4 6 2 14 14 15 17 17 18 18 17 17 16 14 13 13 12
3 3 1 4 4 4 2 3 3 2 0 1 9 5 1 2 3 3 3 5 3 3 1 3 5 3 2 3 3 5 4 3 4 2 4 2 3 10 7 3 2 6 4 2 4 3 1 5 2 5 5 6 7 4 1 6 2 1 5 4 4 0 2 2 4 3 6 10 4 3 5 5 4 3 11 16 17 19 18 18 17 17 18 18 15 13 13 11
3 2 1 3 7 3 2 3 2 0 1 9 9 8 2 3 5 3 4 3 1 2 3 2 3 3 3 2 4 5 5 1 3 2 4 5 4 4 3 4 6 6 7 2 1 2 2 6 1 4 4 5 8 1 4 6 9 5 4 2 4 5 7 1 1 8 9 7 6 4 6 8 8 6 11 16 17 17 17 17 18 20 19 18 16 17 15 14
0 2 3 5 5 2 2 4 1 1 6 8 3 5 3 3 5 7 5 2 1 2 5 4 2 6 1 4 3 6 6 4 1 3 2 3 2 6 4 3 4 9 8 3 1 1 1 1 3 2 5 4 6 6 4 8 4 4 3 3 2 3 2 5 1 2 2 5 6 4 2 5 7 7 10 12 13 13 15 16 17 17 16 14 16 15 15 15
4 2 3 4 5 4 2 2 1 7 7 7 2 4 2 4 5 8 11 4 6 4 3 4 3 6 8 6 2 5 7 8 4 3 2 3 2 1 6 4 3 7 6 7 4 2 1 2 2 3 6 4 3 5 6 7 6 4 2 3 2 3 2 3 3 2 2 3 4 7 4 4 6 7 9 10 10 11 12 13 13 12 13 15 14 14 13 15
1 2 2 6 12 4 3 1 9 6 5 1 1 3 5 3 6 8 10 11 4 7 6 5 2 4 1 4 7 4 4 5 4 4 3 4 4 2 5 5 3 4 4 3 5 5 1 3 2 2 5 7 6 3 3 6 9 6 4 5 4 2 5 7 4 2 1 1 3 7 7 5 5 5 8 7 9 9 10 11 10 11 13 13 12 14 14 13
3 2 5 11 12 8 3 8 4 1 3 5 4 4 3 4 6 10 8 7 7 6 4 5 8 7 4 6 3 4 4 5 5 4 6 5 5 3 4 4 5 4 2 3 3 4 2 2 4 5 4 6 7 5 3 4 2 6 7 5 4 2 2 3 4 4 3 4 2 5 7 5 4 5 6 7 8 9 10 10 9 11 12 12 12 14 13 14
4 2 6 7 9 4 11 6 4 4 4 2 2 5 3 5 4 4 7 8 4 4 6 9 5 1 5 2 4 5 3 6 5 5 3 4 7 7 6 9 3 1 1 2 2 2 1 3 6 6 3 2 6 4 2 6 2 3 5 7 6 4 4 3 3 4 4 4 5 4 3 6 5 5 5 7 8 8 8 10 11 11 11 12 13 13 14 15
1 1 4 5 11 3 6 3 4 5 5 4 5 5 4 6 9 10 8 9 6 5 5 4 4 8 5 5 4 3 3 4 4 3 4 1 4 3 6 10 8 4 4 2 1 1 2 1 0 6 3 2 2 3 2 1 4 4 4 6 7 6 3 1 1 1 3 3 3 3 6 5 5 5 5 6 8 10 10 12 12 11 11 13 14 14 13 13
1 1 2 6 10 7 5 1 4 5 4 4 5 8 5 5 5 5 7 8 6 5 1 6 4 3 5 3 5 4 7 4 5 4 2 2 3 3 8 10 9 7 6 3 2 0 3 2 1 3 5 5 5 5 4 3 3 2 2 6 8 10 10 2 3 0 2 1 1 3 6 5 5 5 6 8 8 9 10 11 11 10 12 13 13 14 14 13
4 2 5 5 7 6 5 2 2 3 4 1 6 4 3 4 2 5 4 7 7 6 8 1 2 5 5 3 7 7 8 9 4 4 1 3 2 3 4 8 8 8 7 10 7 0 3 2 2 2 3 2 4 4 2 1 1 1 4 6 8 8 7 2 1 2 4 5 7 6 6 8 5 5 7 8 9 9 10 10 11 12 13 12 13 13 13 13
2 4 3 3 4 6 4 6 4 3 2 1 2 3 5 4 2 4 8 3 8 6 4 8 4 2 3 4 5 7 5 7 8 7 5 3 1 1 4 6 6 14 12 4 7 2 3 4 4 7 10 7 5 5 3 2 3 1 4 6 7 8 8 6 3 5 1 5 5 2 2 5 5 5 6 7 8 8 9 10 10 11 12 12 12 12 15 16
3 1 0 1 1 2 4 7 7 5 5 2 3 1 4 4 6 3 3 5 1 7 2 3 9 7 4 4 3 4 2 4 4 3 2 2 1 2 2 7 8 8 8 5 6 3 2 3 1 4 7 5 3 5 3 2 3 2 4 4 5 6 7 8 7 4 1 2 5 8 6 7 5 5 6 7 7 8 9 10 10 9 10 12 13 15 16 16
3 2 1 1 1 2 2 4 4 5 9 6 3 5 4 6 6 4 3 3 3 5 4 3 5 7 5 2 1 3 0 4 3 2 0 2 3 1 2 0 4 8 6 4 5 2 1 4 3 3 8 6 5 3 2 4 3 3 5 5 3 4 6 6 7 7 8 10 12 11 10 8 5 5 5 6 6 7 6 7 9 12 13 12 13 15 15 15
2 1 3 1 4 3 5 2 3 4 6 4 3 3 2 3 3 2 3 4 3 4 4 8 4 5 5 5 3 4 2 4 3 3 1 1 2 1 2 2 2 3 5 4 2 3 2 4 5 4 5 4 2 2 1 4 2 5 5 4 4 5 6 6 6 8 9 10 9 10 10 7 5 3 3 5 5 4 6 10 11 11 12 13 14 14 14 15
1 0 0 1 3 4 4 3 2 3 3 4 4 2 2 2 5 1 4 2 3 3 2 7 7 7 6 8 9 7 2 3 3 5 4 1 2 1 2 2 1 2 4 2 3 2 2 3 1 3 5 4 1 2 2 3 2 4 5 5 5 4 5 4 3 3 2 7 7 7 5 4 4 3 2 4 5 8 10 9 9 10 11 12 12 13 14 14
1 1 1 1 3 3 3 2 1 1 4 2 2 2 1 1 1 2 6 4 6 6 4 8 2 5 3 5 6 3 2 3 1 3 2 2 3 2 2 2 1 2 1 2 2 1 1 5 6 5 4 4 3 2 3 1 4 3 3 3 2 5 6 6 5 4 4 1 3 3 4 5 3 2 1 3 4 5 8 8 9 10 11 11 11 13 12 12
Wind_Direction
344 344 343 342 339 337 336 334 332 331 327 325 325 324 323 325 324 325 324 324 326 324 324 325 323 322 317 326 329 330 31 307 289 234 227 242 191 202 175 186 165 197 143 124 126 130 130 133 136 155 150 165 137 181 184 222 243 274 241 299 231 334 5 28 8 357 88 146 160 170 177 163 153 160 128 136 122 116 127 103 92 78 91 127 126 135 142 147
344 341 342 340 339 337 333 332 332 328 326 323 324 321 321 322 323 323 321 323 323 323 322 323 323 318 316 321 323 328 304 270 270 254 237 201 199 187 190 193 168 171 143 139 151 145 138 147 146 159 152 160 150 175 179 195 203 239 232 255 354 289 29 294 330 319 222 153 159 171 180 180 165 160 163 168 149 142 130 124 114 104 112 123 132 139 147 152
342 341 341 339 337 335 333 332 331 327 324 324 322 320 319 321 321 320 319 320 321 320 319 322 322 317 310 318 3 93 323 273 245 253 280 208 188 184 187 208 173 165 163 155 156 150 151 153 151 153 157 150 179 169 207 178 206 218 257 239 245 257 307 283 324 306 316 140 157 167 178 192 154 164 156 174 153 161 156 152 146 133 135 139 140 146 148 156
341 341 340 338 335 334 333 332 328 326 324 323 321 319 319 319 319 318 317 318 319 317 318 317 319 316 308 313 340 186 274 271 248 30 346 156 163 168 189 180 159 162 118 103 123 110 103 121 144 155 139 168 146 208 197 182 225 127 226 230 111 62 337 337 335 333 159 166 160 165 164 184 167 163 170 150 153 190 184 167 166 149 148 146 148 151 154 158
341 341 339 336 334 334 333 329 328 326 324 322 320 317 318 317 315 315 315 314 316 315 314 315 315 315 307 49 14 223 289 261 106 322 101 134 141 149 162 145 149 145 134 117 118 126 138 141 147 141 162 163 157 189 242 209 238 308 248 274 285 291 292 297 318 306 132 153 149 162 169 181 156 166 185 170 181 186 190 171 149 148 152 151 154 156 156 161
341 340 338 335 334 334 330 329 327 325 323 320 319 317 316 314 312 312 312 311 311 312 310 311 310 303 305 125 208 184 263 102 28 16 132 128 128 128 135 127 124 124 128 138 132 144 136 147 150 152 165 169 180 193 152 219 192 249 250 258 261 267 277 290 308 165 155 152 162 171 166 133 166 181 192 191 212 60 140 151 147 149 154 154 152 156 159 166
340 339 336 335 333 332 330 328 326 324 321 320 319 316 314 312 310 310 309 308 306 307 307 306 304 293 281 101 209 280 264 299 318 120 128 131 126 124 131 131 132 140 138 125 137 149 158 153 173 164 161 175 193 213 193 165 193 248 273 283 284 280 273 282 283 194 200 173 181 165 145 163 173 183 183 199 157 114 141 142 145 143 148 154 156 163 161 166
339 336 336 334 333 331 329 327 325 323 320 319 317 314 312 310 310 308 306 304 302 301 303 300 296 292 184 265 234 227 44 305 87 138 133 128 130 135 138 112 134 141 147 148 152 155 155 159 172 146 176 182 150 199 199 236 209 237 260 268 279 290 277 282 285 231 204 188 147 152 165 181 180 166 164 199 162 144 144 140 143 147 152 158 158 161 161 163
337 335 332 332 331 329 327 326 324 321 319 317 315 313 311 309 308 305 302 298 297 297 294 293 286 281 143 263 268 191 198 249 355 150 140 132 127 121 135 130 184 151 138 140 159 150 158 177 151 175 187 182 149 201 209 251 215 218 253 284 292 292 294 290 281 242 196 159 159 156 177 160 167 119 196 184 164 150 144 144 147 151 159 163 164 164 164 167
335 334 332 331 329 327 325 325 322 320 318 316 314 312 310 308 305 302 299 295 292 290 282 273 264 254 198 232 244 188 127 67 103 155 141 131 127 133 154 143 154 134 139 149 135 159 181 169 172 167 142 164 173 156 148 211 356 329 284 283 290 288 292 295 258 209 186 171 168 170 164 165 164 196 187 181 162 149 149 149 153 158 165 167 165 166 168 167
336 333 332 330 327 326 325 323 322 320 318 316 314 312 308 306 304 299 296 291 286 279 263 244 225 179 217 199 278 166 97 135 102 146 144 137 135 149 163 162 156 152 143 142 163 175 144 161 183 131 201 155 180 178 234 258 323 294 293 300 277 276 272 260 256 180 166 170 178 171 138 155 164 204 232 164 164 158 154 155 160 165 166 168 168 168 169 171
333 332 332 329 327 326 324 322 321 320 318 318 314 312 309 306 303 298 291 285 276 258 239 223 197 193 261 237 243 225 348 109 131 141 146 148 148 134 138 161 168 154 151 161 178 193 165 166 175 190 122 158 187 287 230 308 296 289 312 300 319 306 302 33 267 170 180 135 173 147 126 177 189 215 193 159 161 163 158 160 165 167 168 169 170 169 174 174
333 332 331 329 327 326 324 322 321 321 320 317 315 312 310 307 301 295 286 276 260 230 218 198 176 212 247 250 223 234 28 126 124 132 135 107 99 85 122 126 109 105 174 164 176 195 212 162 177 180 75 255 153 229 351 292 292 282 223 311 307 313 272 30 67 157 175 129 168 170 212 191 199 192 160 156 160 161 160 165 167 169 169 171 173 173 174 176
333 332 330 329 327 325 324 323 321 322 321 318 316 315 313 307 297 288 273 239 202 174 176 187 167 185 217 252 293 147 215 108 118 135 152 147 127 93 115 128 108 115 74 78 109 201 189 342 186 164 357 257 67 308 275 308 272 253 19 243 337 293 122 38 51 158 159 144 178 201 250 74 146 176 157 162 161 164 167 169 172 171 172 173 176 177 176 181
333 332 330 330 327 325 323 322 322 322 322 322 318 320 314 307 296 277 220 160 160 144 154 137 157 200 211 276 269 260 131 139 151 170 165 158 139 116 128 139 140 126 95 71 113 199 160 189 170 196 200 116 255 280 297 298 39 318 236 208 137 270 128 37 89 165 170 150 199 197 241 264 134 174 166 167 167 168 169 173 174 174 176 176 177 179 181 185
329 330 329 329 327 324 323 321 321 324 322 324 323 320 317 313 9 104 136 134 143 143 144 152 167 268 312 291 106 124 144 191 186 189 186 172 163 130 142 132 124 124 166 153 84 136 166 192 207 208 237 212 256 322 6 187 151 29 261 115 184 212 345 254 69 172 49 145 196 212 252 66 78 165 167 170 170 174 171 174 177 178 179 178 178 181 184 183
329 326 328 328 327 325 323 321 322 324 324 323 327 321 319 51 84 104 115 122 132 146 205 122 151 189 225 73 147 192 164 190 123 100 164 216 103 124 123 122 133 130 150 119 119 120 145 190 158 206 255 266 30 336 204 204 163 167 328 218 46 290 346 177 70 149 17 190 192 216 249 87 59 156 168 173 176 177 177 176 178 179 181 183 180 183 187 188
330 330 330 328 327 325 323 320 320 324 326 324 324 302 301 32 66 95 81 76 111 188 199 220 217 216 257 261 219 139 89 283 58 93 120 149 128 136 126 129 123 132 143 119 121 156 161 176 190 203 174 200 206 204 208 201 188 160 167 188 169 174 320 1 4 92 226 224 249 209 234 243 94 137 174 182 182 183 183 178 179 179 182 185 187 186 189 191
330 331 329 326 326 324 322 320 319 325 330 324 309 280 257 275 285 110 99 147 191 153 207 166 173 211 129 111 341 294 230 202 111 173 141 138 147 122 77 95 140 141 143 159 141 160 173 155 181 192 204 191 197 207 211 65 114 121 91 87 53 255 124 305 349 318 245 220 232 224 235 244 224 168 177 186 189 189 183 179 181 183 184 186 190 191 192 194
329 328 329 326 321 321 321 319 318 323 338 335 359 42 188 191 190 199 179 198 221 254 11 109 207 351 292 249 310 313 250 85 198 354 134 146 139 138 94 129 130 135 148 177 147 191 174 171 186 199 195 167 176 202 222 164 65 109 108 137 38 315 275 276 278 310 293 249 242 242 243 251 251 195 183 188 185 189 184 183 187 189 188 189 191 193 193 193
324 327 326 322 320 317 314 318 317 322 335 276 266 184 78 152 262 336 310 274 243 256 242 230 212 241 280 356 285 356 13 314 49 123 142 150 141 147 131 167 162 156 173 143 145 120 206 191 196 150 138 163 184 202 129 123 223 217 208 254 177 261 275 347 310 37 346 258 316 258 262 258 260 221 192 182 185 194 192 191 195 194 195 194 194 192 192 192
327 325 326 322 320 317 316 314 319 320 336 144 210 105 109 93 339 349 292 307 291 230 222 262 22 268 284 255 263 139 155 332 150 78 103 182 157 188 159 198 172 169 125 146 129 155 192 206 148 151 157 124 98 140 184 205 158 160 243 204 268 227 297 284 345 39 92 261 285 342 271 265 261 247 192 185 192 199 198 194 197 191 193 196 198 197 190 187
328 326 325 325 319 318 315 313 316 318 293 236 78 100 62 16 339 303 228 241 270 249 235 143 211 244 286 253 261 169 169 195 156 173 173 160 143 261 146 182 177 126 142 174 176 161 181 211 157 163 147 152 115 156 154 147 178 207 196 226 233 76 268 160 119 358 340 304 296 278 269 276 276 266 218 203 202 203 201 203 202 193 190 193 198 192 190 189
327 328 327 323 323 318 314 317 302 270 32 21 288 60 6 19 349 136 190 296 326 308 204 215 226 182 222 295 164 166 177 168 161 161 138 164 162 103 176 166 132 153 171 181 189 178 151 123 165 146 166 179 174 155 177 202 208 186 245 240 250 211 216 274 27 329 313 136 276 257 259 258 259 218 195 212 210 206 201 202 208 205 202 200 191 195 197 194
328 329 327 325 323 323 316 313 322 13 305 267 250 244 328 322 307 239 247 295 186 259 160 123 233 232 139 117 116 199 180 71 245 357 314 158 132 155 178 78 177 176 153 161 162 190 169 112 133 155 149 180 178 184 201 212 230 208 218 233 239 191 222 208 301 325 305 176 56 353 284 238 98 265 266 157 190 207 198 197 204 203 200 194 195 198 198 201
327 326 329 324 327 326 310 284 50 349 292 157 57 57 335 325 313 209 219 11 101 11 208 126 236 131 266 176 127 234 157 182 5 326 319 31 51 161 130 160 310 175 143 159 172 189 181 117 177 161 171 163 197 230 162 210 238 228 200 200 204 212 220 229 193 265 241 227 92 352 285 260 28 350 357 200 198 201 195 204 207 203 201 200 203 198 199 199
326 327 328 326 330 331 301 24 9 248 184 210 243 333 331 313 210 157 251 193 104 11 13 20 216 104 239 89 152 147 187 122 213 51 53 6 302 351 191 146 158 51 134 132 150 186 154 137 150 151 158 175 194 221 179 204 214 228 123 172 191 199 209 216 207 234 279 332 284 192 228 266 328 61 355 318 222 200 200 209 213 209 204 204 206 201 200 199
324 326 326 323 333 337 35 338 306 185 341 357 356 331 321 310 153 93 246 158 66 247 84 203 331 217 283 85 75 359 8 24 162 82 52 328 240 120 273 172 190 156 150 172 198 98 195 169 170 161 179 196 224 224 163 197 215 225 157 164 171 187 203 179 191 178 31 319 262 217 142 221 155 25 21 18 30 13 319 265 236 226 219 215 212 206 202 200
323 324 325 323 348 15 245 271 271 178 225 344 311 332 337 322 192 246 256 75 57 333 50 84 8 142 10 156 75 24 128 9 77 349 328 225 37 257 200 136 87 116 36 227 192 127 52 284 145 180 185 213 208 221 183 178 210 206 153 117 75 91 131 205 204 157 155 207 214 180 236 245 86 21 18 15 25 0 344 332 287 240 229 220 221 218 212 203
321 322 323 321 318 174 177 237 234 274 328 306 328 322 278 168 221 224 222 95 324 111 294 285 277 227 356 116 54 12 68 19 44 349 39 65 5 42 54 339 167 125 126 47 52 77 338 346 164 64 54 327 291 353 200 192 192 86 144 168 141 118 127 95 69 159 134 229 235 218 195 273 89 36 24 11 1 338 336 331 343 313 235 227 219 225 216 215
320 320 320 285 221 142 162 259 231 285 281 310 309 298 161 55 238 290 74 54 301 7 253 1 15 323 98 134 116 1 79 11 15 4 61 3 35 39 9 156 29 121 105 49 85 40 105 116 138 79 340 329 217 153 45 308 42 198 157 174 140 106 139 129 104 182 209 215 230 97 207 206 231 53 17 8 355 357 348 344 340 339 334 251 205 212 218 217
321 319 311 217 243 223 207 323 324 304 313 322 327 29 156 224 168 48 77 109 120 9 360 337 59 87 83 77 67 17 72 73 17 43 60 33 65 42 15 28 341 163 160 167 146 141 96 59 308 310 151 6 353 152 116 126 167 203 182 178 188 146 175 159 146 186 207 190 91 66 163 111 74 50 10 5 5 356 356 350 345 344 333 331 245 210 210 207
323 325 304 204 191 224 238 277 9 317 311 326 22 127 198 186 74 357 311 329 68 314 52 221 2 42 128 90 65 60 41 67 310 45 50 49 70 85 76 39 324 283 178 138 134 158 97 228 25 4 217 7 341 213 150 168 137 179 186 174 193 170 183 180 159 19 144 262 123 238 301 50 133 87 17 14 9 0 357 355 356 352 349 334 321 219 212 207
322 325 192 196 206 233 271 248 258 338 340 33 183 139 155 65 59 302 333 351 7 357 25 20 346 80 33 85 42 295 76 34 44 34 18 110 36 43 24 34 17 18 38 118 159 114 157 165 52 355 57 341 31 28 345 356 115 159 10 214 220 195 188 184 173 180 187 176 146 62 210 147 162 67 25 23 19 8 6 11 10 11 8 3 3 330 213 212
321 314 178 128 242 245 240 240 236 259 195 102 96 73 77 62 260 340 333 349 309 321 31 353 66 80 71 71 351 42 360 94 12 60 45 51 38 39 5 354 8 3 304 181 69 285 26 53 18 330 302 320 14 350 331 216 171 79 166 2 222 208 17 237 151 191 160 143 145 160 54 18 116 118 47 29 25 25 19 17 17 16 12 12 16 16 8 347
314 163 214 273 281 0 155 173 173 159 231 230 76 45 58 15 5 335 3 327 273 333 335 2 42 81 63 92 26 56 21 78 7 70 61 56 58 41 346 355 2 356 353 62 26 132 162 98 341 336 174 15 1 332 34 316 213 148 192 187 67 23 301 111 91 17 46 184 140 49 134 86 98 229 28 18 17 22 21 20 18 15 13 17 18 10 3 351
42 303 131 337 320 353 133 141 144 179 144 82 73 68 19 113 317 270 302 325 327 299 294 142 14 14 72 54 46 2 49 48 51 16 67 317 79 12 354 347 343 1 11 299 94 352 154 118 42 9 14 17 349 289 243 42 337 154 196 104 79 76 352 306 181 150 191 191 105 52 84 54 190 155 8 12 16 17 16 16 17 20 19 21 16 8 358 354
347 34 256 313 348 355 121 152 191 28 213 72 69 90 254 26 20 307 314 302 190 6 80 73 71 304 82 105 52 354 341 77 16 18 85 4 95 317 351 340 346 12 349 288 312 90 300 121 83 51 296 343 354 147 181 38 21 14 60 60 243 139 196 72 258 180 177 181 122 102 80 74 28 25 2 12 11 8 10 11 16 19 17 15 10 6 3 2
248 47 2 1 24 20 137 181 288 217 73 63 41 88 33 42 7 18 335 277 93 232 57 20 115 26 75 83 134 49 8 111 355 55 132 22 79 15 21 307 357 353 2 321 98 103 343 136 133 48 349 316 22 20 27 331 25 76 210 86 27 297 1 168 298 359 269 143 150 111 193 68 37 23 14 12 11 13 12 22 24 18 16 14 11 7 8 8
12 29 0 354 31 41 135 176 277 42 57 69 46 61 294 39 354 355 9 357 21 4 77 69 26 101 57 69 39 97 38 51 70 68 59 7 102 97 25 353 344 327 338 15 83 275 82 307 93 21 353 237 46 23 53 14 357 19 70 35 39 12 317 354 63 355 302 164 166 138 138 77 45 25 19 13 16 19 19 25 25 20 18 16 13 12 9 11
230 62 296 346 358 4 205 359 39 18 63 117 67 30 18 21 350 3 1 11 75 24 67 77 15 76 136 121 72 14 86 45 50 70 60 74 4 124 55 8 313 317 331 274 57 15 47 13 89 21 49 53 86 25 357 8 30 35 30 50 354 322 160 189 156 139 352 248 152 166 114 89 48 38 17 11 21 27 23 21 27 22 20 16 17 18 18 16
59 41 333 353 353 323 100 56 22 57 54 46 38 357 11 11 14 358 1 3 46 67 33 82 48 68 57 59 68 44 93 67 34 83 38 81 25 16 343 347 294 264 311 59 29 7 12 77 69 80 64 98 117 116 14 352 304 41 37 32 350 8 317 275 189 162 128 57 35 82 115 91 32 27 21 18 20 26 23 20 26 27 20 15 11 13 19 27
30 30 298 313 360 321 75 57 31 56 59 35 238 46 15 62 20 342 14 1 34 20 43 47 12 68 35 54 79 79 48 82 10 66 119 84 59 13 315 307 287 262 13 88 240 68 229 49 85 72 95 209 237 280 303 0 339 214 46 26 23 27 344 350 14 80 106 130 152 134 86 109 66 30 30 28 28 29 31 27 25 25 21 17 12 9 14 19
181 348 329 326 351 309 72 92 89 78 87 60 66 80 27 66 31 23 35 21 26 20 52 30 59 37 83 35 66 81 298 117 39 76 99 320 77 327 344 3 347 53 347 60 327 68 259 67 325 122 144 179 178 165 156 143 32 49 13 13 10 16 42 356 34 294 100 28 359 170 142 136 81 47 34 30 24 31 29 30 24 21 20 18 13 12 8 12
136 218 244 304 357 26 75 19 120 104 81 75 62 45 13 56 24 41 39 41 23 36 247 52 16 328 65 48 82 77 39 15 121 15 88 62 76 321 360 4 354 55 44 58 51 359 52 69 300 171 174 178 187 202 181 178 25 357 4 347 25 17 7 300 155 146 100 80 319 89 104 96 107 71 56 34 20 26 28 23 24 28 24 20 16 16 15 12
23 75 329 9 12 37 72 4 16 82 108 124 60 25 19 82 94 27 7 57 31 53 52 26 8 24 41 59 59 36 43 27 56 148 165 110 56 38 359 341 12 33 43 56 35 18 97 85 34 311 294 300 55 69 31 325 70 59 2 9 12 8 2 352 25 99 98 134 97 43 86 126 109 63 49 42 34 23 22 21 23 21 19 20 19 16 18 19
133 55 347 0 304 56 52 36 16 338 83 313 78 342 28 23 312 51 2 78 11 25 60 42 8 21 30 59 74 71 21 68 59 87 34 81 68 355 304 351 6 12 355 30 6 83 96 94 41 59 74 89 107 94 97 35 82 61 355 9 8 14 359 28 53 84 11 142 91 96 170 126 89 63 50 44 35 27 21 19 20 22 21 20 16 14 19 22
70 133 205 307 358 5 356 38 9 51 45 12 82 329 27 34 38 51 32 64 108 17 19 33 34 36 30 58 110 100 33 60 32 75 5 39 8 50 58 27 38 348 358 41 1 54 92 101 111 106 90 85 59 91 102 85 43 32 13 7 17 13 40 57 48 52 332 326 121 147 144 109 93 63 48 46 36 27 21 13 16 16 22 21 20 20 19 20
62 119 102 287 95 45 326 314 344 62 59 34 85 30 58 46 65 40 359 21 39 25 355 104 10 15 29 36 65 103 34 142 101 20 69 59 38 358 111 182 64 15 19 47 39 24 126 71 105 91 113 96 71 65 23 38 73 83 48 48 40 55 64 70 70 58 79 101 113 123 112 93 57 62 31 33 28 31 28 21 19 22 22 19 23 24 21 19
42 22 109 29 82 82 3 360 356 21 65 348 83 8 49 24 62 39 43 22 88 53 0 85 75 50 40 65 60 85 76 10 79 131 176 155 129 344 58 6 339 24 19 39 342 40 301 117 130 137 115 102 43 353 360 32 28 99 70 75 81 101 83 72 83 84 98 100 121 122 114 94 58 39 57 30 21 29 41 35 28 21 18 21 24 22 20 16
76 48 280 116 56 1 340 16 15 23 74 21 64 89 93 53 85 26 76 339 25 95 107 121 113 93 44 72 79 89 98 91 65 48 150 194 35 79 321 121 317 7 5 31 9 16 326 128 82 148 136 127 162 329 36 16 91 102 95 77 70 115 105 75 96 54 94 124 142 147 132 111 78 70 65 23 20 26 32 29 29 21 17 20 19 21 19 13
146 14 321 285 89 1 18 312 324 231 64 10 6 40 11 57 28 284 106 46 48 39 117 136 150 101 101 88 85 99 141 193 48 354 335 341 0 38 31 79 182 353 25 33 340 25 19 142 161 167 162 135 137 277 358 261 171 188 153 92 94 90 100 98 78 60 61 51 163 164 99 97 105 48 41 37 15 19 28 27 22 21 20 14 15 16 14 13